Location: Domont
(49.0278°N, 2.3264°E)
Time: 10:40:54
(UTC+00:00)

NOAA 18 - Pass Details

Date: 30 June 2022
Orbit: 839 x 860 km, 98.9° (Epoch: 10 August)

Event Time Altitude Azimuth Distance (km) Brightness Sun altitude
Exits shadow 21:08:53 10° 158° (SSE) 2,483 7.0 -9.0°
Reaches altitude 10° 21:08:54 10° 158° (SSE) 2,476 7.0 -9.0°
Maximum altitude 21:14:23 79° 73° (ENE) 877 5.3 -9.5°
Drops below altitude 10° 21:19:58 10° 347° (NNW) 2,505 8.9 -10.0°
Sets 21:22:21 0° 346° (NNW) 3,448 9.8 -10.3°
